Regional Weather Roundup
Issued by NWS

Home | Current Version | Previous Version | Graphics & Text | Print | Product List | Glossary On
Versions: 1 2 3 4 5 6 7 8 9 10 11 12 13 14 15 16 17 18 19 20 21 22 23 24 25 26 27 28 29 30 31 32 33 34 35 36 37 38 39 40 41 42 43 44 45 46 47 48 49 50
086
ASUS44 KLIX 292111
RWRLA
LOUISIANA WEATHER ROUNDUP
NATIONAL WEATHER SERVICE NEW ORLEANS LA
400 PM CDT SUN MAR 29 2015

NOTE: "FAIR" INDICATES FEW OR NO CLOUDS BELOW 12,000 FEET WITH NO
      SIGNIFICANT WEATHER AND/OR OBSTRUCTIONS TO VISIBILITY.
      SKY/WX - SKY CONDITION AND SIGNIFICANT WEATHER.
      TMP - AIR TEMPERATURE.    DP   - DEWPOINT TEMPERATURE.
      RH  - RELATIVE HUMIDITY.  PRES - PRESSURE.
      HX  - HEAT INDEX.         WCI  - WIND CHILL INDEX.

*  THESE STATIONS ARE NOT NWS OR FAA STATIONS AND ARE NOT UNDER
   NWS QUALITY CONTROL.

LAZ040-048-061>063-065-066-069-292200-
SOUTHEAST LOUISIANA

CITY           SKY/WX    TMP DP  RH WIND       PRES   REMARKS
N.O. AUDUBON   NOT AVBL
N.O. INTL ARPT MOSUNNY   76  60  57 S17       30.20F
N.O. LAKEFRONT PTSUNNY   77  58  51 S16       30.21F
SLIDELL        CLOUDY    73  60  63 SE10      30.21F
BATON ROUGE    PTSUNNY   78  55  44 S17G25    30.17F
BOOTHVILLE     SUNNY     73  61  65 SE17      30.24F
BELLE CHASSE   MOSUNNY   74  60  61 S16       30.21F
BOGALUSA*        N/A     76  55  48 S8G18     30.21F
GALLIANO*      MOCLDY    78  64  61 MISG      30.22F
NEW ROADS*     MOCLDY    79  57  46 S14G21    30.16F
GONZALES*      MOCLDY    78  57  48 S12G18    30.18F
HAMMOND*       MOSUNNY   77  57  50 SE14G20   30.20F
HOUMA*         MOSUNNY   77  63  61 S12       30.21F
PORT FOURCHON* CLEAR     73  64  73 SE12      30.25F

$$

LAZ041-044-053-054-292200-
SOUTHWEST LOUISIANA

CITY           SKY/WX    TMP DP  RH WIND       PRES   REMARKS
LAKE CHARLES   MOSUNNY   76  61  59 S16G28    30.16F
LAFAYETTE      MOSUNNY   78  60  53 S12G23    30.17F
PATTERSON      PTSUNNY   77  57  50 SW16      30.21F
SALT POINT       N/A     74  65  73 VRB5      30.19F
NEW IBERIA     MOSUNNY   78  60  53 S23       30.19F
CHENAULT AIRPK NOT AVBL

$$

LAZ027-028-292200-
CENTRAL LOUISIANA

CITY           SKY/WX    TMP DP  RH WIND       PRES   REMARKS
FORT POLK      MOSUNNY   80  59  49 S14G26    30.10F
ALEXANDRIA INT SUNNY     81  57  43 S21G29    30.08F
ALEXANDRIA     SUNNY     81  55  40 S17G26    30.10F

$$

LAZ001-002-292200-
NORTHWEST LOUISIANA

CITY           SKY/WX    TMP DP  RH WIND       PRES   REMARKS
SHREVEPORT     SUNNY     84  53  34 SW20G28   30.03F
BARKSDALE AFB  SUNNY     83  56  39 SW14G24   30.03F
DTN SHREVEPORT SUNNY     81  55  40 S13G25    30.02F

$$

LAZ014-016-292200-
NORTHEAST LOUISIANA

CITY           SKY/WX    TMP DP  RH WIND       PRES   REMARKS
MONROE         MOSUNNY   79  59  50 S16G24    30.07F
TALLULAH       SUNNY     79  54  41 S14G29    30.11F

$$




USA.gov is the U.S. government's official web portal to all federal, state and local government web resources and services.